Showing default

PICO-02F026, 60567

Orbit data source: Space-Track

PICO-02F026, 60567 is a payload satellite owned by Apogeo Space (IT) in SSO that was launched on Fri, 16 Aug 2024 UTC via an FALCON 9 launch vehicle from the Air Force Western Test Range (AFWTR). Payload-class satellites include a variety of spacecraft equipped with specific instruments for various scientific and technological missions. These include communications satellites like Starlink; space stations such as the ISS; scientific satellites like the Hubble; Earth observation satellites from companies like Planet Labs, Umbra, and HawkEye 360; GPS; miniature CubeSats for education and research; and military/defense satellites.

Loading next visibility...
Identifier
60567, 2024-149DD
Orbit
SSO
Country
Flag of ITIT
Related business
Manufacturer
Apogeo Space
Mission
Operational Commercial Communications
Bus & Motor
CUBESAT 0.3U, Unknown motor
Mass
0.5 kg wet, 0.5 kg dry
Launch date (UTC)
2024-08-16 (1 year ago)
Launch vehicle
FALCON 9
Launch site
Air Force Western Test Range (AFWTR)
Object type
Payload
Rocket body
Debris
Shape & HBR
Box, 0.1 m
Radar Cross Section
0.008 m², Medium (>0.1 m² and < 1m²)

Expand to show TLE details & history
Last TLE update: 13 hours ago

TLE from 13 hours ago
0 PICO-02F026
1 60567U 24149DD  25297.48882227  .00117112  00000-0  34813-2 0  9994
2 60567  97.7043  23.1373 0002257 255.6634 104.4357 15.34277194 65471
Epoch: 2025-10-24T11:43Z
TLE epoch observation values (Epoch: 2025-10-24T11:43:54.244Z)
Latitude
-0.00005°
Longitude
174.02829°
Altitude
466.555 km
Speed
7.633 km/s
True Right ascension
01h 32m 32s
True Declination
0° 00' 00"
Sunlit
Object was in full shadow at epoch
Visualization orbit readout
Latitude
Unknown
Longitude
Unknown
Altitude
Unknown
Speed
Unknown
Apparent Right ascension
Unknown
Apparent Declination
Unknown
Sunlit
N/A
Visualization observer readout
Local Sidereal Time
19:58:30
Azimuth
Unknown
Elevation
Unknown
Doppler factor
Unknown
Orbital elements
Apogee altitude
461.572 km
Perigee altitude
458.485 km
Semi-major axis
6,838.165 km
Eccentricity
0.00023
Inclination
97.7043°
RAAN
23.1373°
Arg. of periapsis
255.6634°
True anomaly
104.46074°
Mean anomaly
104.4357°
Eccentric anomaly
104.44822°
Mean motion
3.83825 °/min
Orbital period
93.79 mins
BSTAR
0.0034813
Loading maneuver chart data...
Computing Atmospheric mass density...
Loading historical data...
Loading historical data...
Loading historical data...
Loading historical data...
Loading historical data...
Loading historical data...
Loading historical data...

Documentation

Showing up to 5 results
|